User: anonymous   Login
Location: Unspecified
(0.0000°N, 0.0000°E)
Time: 03:21:06
(UTC+00:00)
Language:

DIAMOND GREEN - Orbit

View from above orbital plane
View from above orbital plane
View from above satellite
View from above satellite

Ground track
Ground track

The orbit data is extracted from the following two-line orbital elements,

1 42785U 17036W   18172.61336411 +.00001009 +00000-0 +47871-4 0  9998
2 42785 097.4008 232.2584 0013906 065.7569 294.5119 15.21472362055250
Epoch (UTC): 21 June 2018 14:43:14
Eccentricity: 0.0013906
inclination: 97.4008°
perigee height: 492 km
apogee height: 511 km
right ascension of ascending node: 232.2584°
argument of perigee: 65.7569°
revolutions per day: 15.21472362
mean anomaly at epoch: 294.5119°
orbit number at epoch: 5525

The dashed part of the orbit path shows where the satellite is in the earth's shadow,  

DLR